Погода в Важинах

Россия / Санкт-Петербург и Ленинградская область     60°57′38″N   34°01′32″E
темп.,
°C
ветер,
м/с
пор.,
м/с
влажн.,
%
обл.,
%
осадки,
мм/ч
давл.,
гПа
погр.,
м
13 июня, вс
вс1300:00+13юв29966 0.5 1004256
03:00+12юв269925 0.5 1004155
06:00+15ю149521 0.0 1003187
09:00+20ю23660 0.0 1003755
12:00+24ююз24402 0.0 10032173
15:00+24ююз243988 0.0 10031746
18:00+21ссз0253100 0.0 1003232
21:00+18зсз127470 0.0 100544
14 июня, пн
пн1400:00+14з2592100 0.0 1007124
03:00+12зсз3799100 0.0 1009299
06:00+13ссз387990 0.0 1011558
09:00+17сз3549100 0.0 10131228
12:00+20з343498 0.0 10142019
15:00+20з5535100 0.0 10151689
18:00+18зюз3537100 0.0 10151051
21:00+13зюз246157 0.0 101584
15 июня, вт
вт1500:00+9ююз227177 0.0 101430
03:00+8ю227843 0.0 101342
06:00+12ю21065100 0.0 1012310
09:00+18юз51050100 0.0 10101055
12:00+22юз61034100 0.0 10081903
15:00+22зюз5937100 0.0 10071994
18:00+13зюз3997100 0.8 1008416
21:00+13юз3997100 1.1 1008438
16 июня, ср
ср1600:00+11зюз3898100 0.0 1009307
03:00+9з26976 0.0 1010148
06:00+10зсз29880 0.0 1012300
09:00+17зсз46460 0.0 10141362
12:00+19з46355 0.0 10152204
15:00+20з56334 0.0 10162185
18:00+19з46355 0.0 10171848
21:00+14зюз385564 0.0 1019276
17 июня, чт
чт1700:00+9з286818 0.0 1020135
03:00+9зюз227610 0.0 102133
06:00+13зюз37725 0.0 1022228
09:00+19зюз48475 0.0 1022942
12:00+21з593912 0.0 10231518
15:00+22зюз583594 0.0 10221559
18:00+22зюз484029 0.0 10221325
21:00+17зюз286289 0.0 1022204